sat.trackr.live / text

‹ back to catalog

KUIPER-00135

NORAD 65961 · 2025-228Q

PAYLOAD ACTIVE UNKNOWN

§ Identity

Operator
Country
US
Launch date
2025-10-14
Launch site
AFETR
Launch vehicle
Mass (kg)
RCS (m²)

External: N2YO · Heavens-Above · Gunter

§ Orbital elements

Epoch: 2026-05-25T01:10:01.828992Z

Period
97.30 min
Inclination
51.9030°
Eccentricity
0.0000870
Mean motion
14.79940134 rev/d
Perigee alt
628.9 km
Apogee alt
630.1 km
Semi-major
7,007.7 km
B*
4.6400e-4
RAAN
13.0272°
Arg perigee
105.2066°
Mean anomaly
254.8993°
Rev number
3,467

§ Raw data

KUIPER-001351 65961U 25228Q   26145.04863228  .00003318  00000+0  46400-3 0  99982 65961  51.9030  13.0272 0000870 105.2066 254.8993 14.79940134 34679

JSON: /api/v1/satellites/65961 · /tle

For live sub-satellite position, see the globe view (requires WebGL).

§ Visibility from observer

Set your observer location to see the next 7 days of passes ≥ 10°. The values pass through the URL so the page stays shareable.

No JS? Fill the form by hand. The geolocation button needs JavaScript.